Location: El Centro
(32.7920°N, 115.5620°W)
Time: 01:25:05
(UTC-07:00)

Amateur Radio Satellites - All Passes

Search period start: 02 October 2014 00:55
Search period end: 03 October 2014 00:55
Location: El Centro, 32.7920°N, 115.5620°W

Satellite Date Start Highest point End Downlink Frequencies (MHz)
Time Altitude Azimuth
Oscar 16 02 Oct 01:12:29 01:15:56 18° 94° (E) 01:19:22 437.025 USB, Beacon 2401.1428
RS-15 02 Oct 01:41:11 01:52:09 67° 113° (ESE) 02:02:53 29.354 - 29.394 USB, Beacon 29.352 USB
Oscar 19 02 Oct 02:09:03 02:14:11 71° 102° (ESE) 02:19:16 437.125 CW, 437.150 USB
ITAMSAT 1 02 Oct 02:23:22 02:28:12 37° 99° (E) 02:33:00 435.822 SSB
TMSAT-1 02 Oct 02:23:46 02:25:30 12° 92° (E) 02:27:14 436.925 FM
Uribyol 2 02 Oct 02:23:55 02:28:50 41° 99° (E) 02:33:43 436.500 FM
KITSAT 1 02 Oct 02:43:35 02:51:40 80° 246° (WSW) 02:59:42 435.175 FM
JAS-1B 02 Oct 02:44:08 02:49:55 82° 104° (ESE) 02:56:24 435.800 - 435.900 CW/SSB
Oscar 16 02 Oct 02:50:35 02:55:24 42° 288° (WNW) 03:00:11 437.025 USB, Beacon 2401.1428
AO-Echo 02 Oct 02:51:11 02:56:17 86° 283° (WNW) 03:01:30 ?
AO-27 02 Oct 03:01:47 03:07:03 85° 284° (WNW) 03:12:16 436.795 MHz FM
OPAL 02 Oct 03:29:37 03:31:59 13° 62° (ENE) 03:34:21 ?
Gurwin Techsat 1B 02 Oct 03:32:31 03:37:51 90° 82° (E) 03:43:10 435.225 FM
MaSat-1 02 Oct 03:47:37 03:49:04 11° 101° (ESE) 03:50:31 437.345 MHz
SO-50 02 Oct 03:49:47 03:54:23 42° 57° (ENE) 03:58:59 436.795 FM
Oscar 19 02 Oct 03:51:21 03:52:51 11° 296° (WNW) 03:54:22 437.125 CW, 437.150 USB
RS-15 02 Oct 03:55:42 04:05:09 32° 313° (NW) 04:14:37 29.354 - 29.394 USB, Beacon 29.352 USB
Oscar 10/S400 02 Oct 03:59:38 04:44:28 14° 257° (WSW) 05:52:46 145.825 - 145.975 CW/USB, Beacon 145.810 USB
TMSAT-1 02 Oct 04:00:31 04:05:47 66° 285° (WNW) 04:11:02 436.925 FM
ITAMSAT 1 02 Oct 04:03:30 04:07:23 22° 292° (WNW) 04:11:17 435.822 SSB
Uribyol 2 02 Oct 04:04:15 04:07:58 20° 293° (WNW) 04:11:40 436.500 FM
Uosat F 02 Oct 04:14:32 04:18:30 23° 96° (E) 04:22:27 435.120 FM
JAS-1B 02 Oct 04:39:02 04:40:00 10° 297° (WNW) 04:40:58 435.800 - 435.900 CW/SSB
AO-7 02 Oct 04:39:48 04:47:53 54° 103° (ESE) 04:55:57 29.400 - 29.500 MHz
KITSAT 1 02 Oct 04:43:38 04:45:48 11° 260° (W) 04:47:58 435.175 FM
ISS 02 Oct 04:54:28 04:57:46 70° 43° (NE) 05:01:04 145.800 FM
OPAL 02 Oct 05:05:05 05:10:15 66° 256° (WSW) 05:15:27 ?
MaSat-1 02 Oct 05:20:11 05:25:01 63° 293° (WNW) 05:29:41 437.345 MHz
SO-50 02 Oct 05:31:19 05:34:37 18° 251° (WSW) 05:37:55 436.795 FM
JAS-2 02 Oct 05:48:11 05:54:47 43° 99° (E) 06:01:57 435.800 - 435.900 CW/SSB, 435.910 FM
UOSAT-12 02 Oct 05:51:25 05:56:04 59° 60° (ENE) 06:00:37 437.025 FM, 437.400 FM
Uosat F 02 Oct 05:52:49 05:57:15 32° 290° (WNW) 06:01:41 435.120 FM
Hamsat 02 Oct 05:55:10 05:58:47 28° 97° (E) 06:02:22 145.90 MHz
STRAND 1 02 Oct 06:09:21 06:13:51 33° 71° (ENE) 06:18:23 ?
AO-7 02 Oct 06:33:23 06:40:11 29° 298° (WNW) 06:46:59 29.400 - 29.500 MHz
SO-67 02 Oct 07:16:04 07:19:07 29° 97° (E) 07:22:08 435.3500 MHz FM
Hamsat 02 Oct 07:31:40 07:34:30 18° 290° (WNW) 07:37:19 145.90 MHz
JAS-2 02 Oct 07:33:38 07:39:34 32° 291° (WNW) 07:45:59 435.800 - 435.900 CW/SSB, 435.910 FM
UOSAT-12 02 Oct 07:34:10 07:35:38 11° 254° (WSW) 07:37:05 437.025 FM, 437.400 FM
PCSat 02 Oct 07:35:39 07:37:53 13° 103° (ESE) 07:40:07 145.825 MHz
STRAND 1 02 Oct 07:49:05 07:53:01 23° 264° (W) 07:57:00 ?
RS-15 02 Oct 08:37:31 08:42:48 14° 27° (NNE) 08:48:07 29.354 - 29.394 USB, Beacon 29.352 USB
Sapphire 02 Oct 08:49:52 08:55:12 67° 112° (ESE) 09:00:34 437.095 MHz 1200 baud AX-25 AFSK
SO-67 02 Oct 08:50:42 08:51:48 11° 290° (WNW) 08:52:53 435.3500 MHz FM
PCSat 02 Oct 09:15:18 09:20:39 65° 297° (WNW) 09:26:03 145.825 MHz
HO-68 02 Oct 09:26:53 09:33:58 58° 102° (ESE) 09:41:00 435.675 MHz FM
Oscar 11 02 Oct 09:52:52 09:56:45 32° 98° (E) 10:00:36 145.825 FM, Beacon 2401.500 USB
AO-40 02 Oct 10:01:08 10:13:24 17° 212° (SSW) 10:18:48 Beacon 2401.320
FUNcube-1 02 Oct 10:21:00 10:24:50 27° 96° (E) 10:28:34 145.950 - 145.970 MHz USB
UKube-1 02 Oct 10:23:19 10:27:41 81° 284° (WNW) 10:32:03 145.840 MHz, 145.915 MHz
Sapphire 02 Oct 10:36:00 10:39:05 15° 309° (NW) 10:42:11 437.095 MHz 1200 baud AX-25 AFSK
RS-15 02 Oct 10:47:51 10:58:39 51° 55° (NE) 11:09:52 29.354 - 29.394 USB, Beacon 29.352 USB
ZACube-1 02 Oct 11:05:58 11:10:30 83° 283° (WNW) 11:14:54 437.345 MHz
HO-68 02 Oct 11:15:45 11:21:06 23° 297° (WNW) 11:26:28 435.675 MHz FM
Oscar 11 02 Oct 11:29:52 11:32:38 17° 291° (WNW) 11:35:24 145.825 FM, Beacon 2401.500 USB
FUNcube-1 02 Oct 11:57:37 12:01:01 21° 291° (WNW) 12:04:21 145.950 - 145.970 MHz USB
Oscar 16 02 Oct 12:25:33 12:28:58 18° 67° (ENE) 12:32:23 437.025 USB, Beacon 2401.1428
Saudisat 1A 02 Oct 12:43:16 12:47:04 29° 112° (ESE) 12:50:53 436.775 MHz
RS-15 02 Oct 13:00:34 13:10:42 41° 253° (WSW) 13:21:17 29.354 - 29.394 USB, Beacon 29.352 USB
Oscar 19 02 Oct 13:21:22 13:26:30 65° 75° (ENE) 13:31:39 437.125 CW, 437.150 USB
JAS-1B 02 Oct 13:24:06 13:31:31 49° 73° (ENE) 13:37:47 435.800 - 435.900 CW/SSB
ITAMSAT 1 02 Oct 13:37:10 13:41:51 36° 71° (ENE) 13:46:34 435.822 SSB
Uribyol 2 02 Oct 13:37:31 13:42:18 39° 71° (ENE) 13:47:07 436.500 FM
TMSAT-1 02 Oct 13:40:27 13:42:44 13° 64° (ENE) 13:45:01 436.925 FM
Oscar 10/S400 02 Oct 13:45:03 14:06:29 38° 151° (SSE) 14:24:53 145.825 - 145.975 CW/USB, Beacon 145.810 USB
AO-Echo 02 Oct 14:00:04 14:04:44 76° 76° (ENE) 14:09:26 ?
Oscar 16 02 Oct 14:02:58 14:07:55 45° 260° (W) 14:12:53 437.025 USB, Beacon 2401.1428
AO-27 02 Oct 14:15:29 14:20:39 88° 257° (WSW) 14:25:52 436.795 MHz FM
Saudisat 1A 02 Oct 14:23:09 14:26:36 22° 307° (NW) 14:30:05 436.775 MHz
Gurwin Techsat 1B 02 Oct 14:49:07 14:54:25 89° 257° (WSW) 14:59:45 435.225 FM
Oscar 19 02 Oct 15:04:35 15:06:11 11° 268° (W) 15:07:48 437.125 CW, 437.150 USB
KITSAT 1 02 Oct 15:13:40 15:19:38 23° 104° (ESE) 15:25:36 435.175 FM
JAS-1B 02 Oct 15:15:55 15:22:05 25° 262° (W) 15:27:33 435.800 - 435.900 CW/SSB
MaSat-1 02 Oct 15:16:16 15:19:20 69° 250° (WSW) 15:22:01 437.345 MHz
TMSAT-1 02 Oct 15:16:47 15:22:01 66° 258° (WSW) 15:27:18 436.925 FM
ITAMSAT 1 02 Oct 15:17:31 15:21:22 21° 265° (W) 15:25:16 435.822 SSB
Uribyol 2 02 Oct 15:18:10 15:21:51 20° 265° (W) 15:25:34 436.500 FM
Uosat F 02 Oct 15:24:02 15:27:40 21° 68° (ENE) 15:31:19 435.120 FM
AO-7 02 Oct 15:33:52 15:41:44 50° 67° (ENE) 15:49:37 29.400 - 29.500 MHz
Hamsat 02 Oct 16:45:50 16:47:47 13° 68° (ENE) 16:49:45 145.90 MHz
Uosat F 02 Oct 17:01:36 17:06:10 36° 261° (W) 17:10:46 435.120 FM
KITSAT 1 02 Oct 17:06:22 17:14:21 63° 299° (WNW) 17:22:22 435.175 FM
OPAL 02 Oct 17:19:44 17:24:37 48° 102° (ESE) 17:29:25 ?
AO-7 02 Oct 17:27:36 17:34:38 31° 262° (W) 17:41:42 29.400 - 29.500 MHz
PANSAT 02 Oct 17:41:23 17:43:56 17° 159° (SSE) 17:46:30 not established
JAS-2 02 Oct 17:41:34 17:46:42 77° 76° (ENE) 17:52:04 435.800 - 435.900 CW/SSB, 435.910 FM
Sapphire 02 Oct 17:43:06 17:47:16 22° 55° (NE) 17:51:24 437.095 MHz 1200 baud AX-25 AFSK
SO-50 02 Oct 18:00:47 18:04:50 36° 113° (ESE) 18:08:58 436.795 FM
PCSat 02 Oct 18:07:52 18:12:56 39° 59° (ENE) 18:17:57 145.825 MHz
Hamsat 02 Oct 18:19:11 18:23:19 44° 261° (W) 18:27:27 145.90 MHz
STRAND 1 02 Oct 18:25:25 18:28:34 16° 94° (E) 18:31:42 ?
OPAL 02 Oct 18:59:57 19:03:03 17° 296° (WNW) 19:06:07 ?
KITSAT 1 02 Oct 19:07:59 19:11:26 13° 320° (NW) 19:14:53 435.175 FM
SO-67 02 Oct 19:16:48 19:20:13 69° 259° (W) 19:23:39 435.3500 MHz FM
PANSAT 02 Oct 19:20:06 19:23:41 36° 171° (S) 19:27:16 not established
Sapphire 02 Oct 19:25:43 19:30:50 43° 250° (WSW) 19:35:55 437.095 MHz 1200 baud AX-25 AFSK
SO-50 02 Oct 19:42:10 19:45:28 20° 308° (NW) 19:48:50 436.795 FM
HO-68 02 Oct 19:51:34 19:57:22 28° 64° (ENE) 20:03:11 435.675 MHz FM
PCSat 02 Oct 19:51:54 19:56:02 23° 254° (WSW) 20:00:10 145.825 MHz
ISS 02 Oct 19:57:40 20:00:06 19° 128° (SE) 20:02:33 145.800 FM
UOSAT-12 02 Oct 19:58:13 20:02:38 50° 114° (ESE) 20:07:10 437.025 FM, 437.400 FM
STRAND 1 02 Oct 20:03:00 20:07:55 47° 287° (WNW) 20:12:50 ?
Oscar 11 02 Oct 20:44:46 20:47:24 16° 68° (ENE) 20:50:02 145.825 FM, Beacon 2401.500 USB
PANSAT 02 Oct 20:59:55 21:03:35 42° 184° (S) 21:07:15 not established
FUNcube-1 02 Oct 21:14:17 21:16:42 14° 67° (ENE) 21:19:08 145.950 - 145.970 MHz USB
UKube-1 02 Oct 21:14:22 21:18:31 47° 74° (ENE) 21:22:42 145.840 MHz, 145.915 MHz
ISS 02 Oct 21:33:40 21:36:38 29° 322° (NW) 21:39:36 145.800 FM
HO-68 02 Oct 21:37:53 21:44:41 48° 259° (W) 21:51:33 435.675 MHz FM
UOSAT-12 02 Oct 21:40:09 21:43:04 16° 310° (NW) 21:46:00 437.025 FM, 437.400 FM
ZACube-1 02 Oct 21:57:42 22:02:01 45° 74° (ENE) 22:06:24 437.345 MHz
Oscar 11 02 Oct 22:19:14 22:23:15 36° 262° (W) 22:27:16 145.825 FM, Beacon 2401.500 USB
PANSAT 02 Oct 22:40:15 22:43:25 24° 196° (SSW) 22:46:33 not established
FUNcube-1 02 Oct 22:48:18 22:52:37 45° 261° (W) 22:57:02 145.950 - 145.970 MHz USB
Saudisat 1A 02 Oct 22:52:46 22:57:12 83° 62° (ENE) 23:01:36 436.775 MHz
UKube-1 02 Oct 22:53:39 22:54:55 11° 267° (W) 22:56:11 145.840 MHz, 145.915 MHz
ZACube-1 02 Oct 23:36:25 23:38:36 13° 268° (W) 23:40:48 437.345 MHz
